owner,sensor,date,latitude,longitude,vertical_datum,wind_speed,wind_to_direction,wind_speed_of_gust,qcFlag 
TABS,ioos:station:wmo:42044:1,2009-09-01T00:00:00Z,26.1914,-97.0507,0.0,2.457254566,107.7717002,3.28,'11111222,11111222,11111222' 
TABS,ioos:station:wmo:42044:1,2009-09-01T00:30:00Z,26.1914,-97.0507,0.0,1.943707797,49.59021676,2.53,'11111222,11111222,11111222' 
TABS,ioos:station:wmo:42044:1,2009-09-01T01:00:00Z,26.1914,-97.0507,0.0,2.59,90.00042092,3.21,'11111222,11111222,11111222' 
TABS,ioos:station:wmo:42044:1,2009-09-01T01:30:00Z,26.1914,-97.0507,0.0,3.616973873,132.4231904,4.78,'11111222,11111222,11111222' 
TABS,ioos:station:wmo:42044:1,2009-09-01T02:00:00Z,26.1914,-97.0507,0.0,3.174917322,134.8727087,3.91,'11111222,11111222,11111222' 
TABS,ioos:station:wmo:42044:1,2009-09-01T02:30:00Z,26.1914,-97.0507,0.0,2.583795658,129.9762522,3.21,'11111222,11111222,11111222' 
TABS,ioos:station:wmo:42044:1,2009-09-01T03:00:00Z,26.1914,-97.0507,0.0,2.45,126.8702323,3.16,'11111222,11111222,11111222' 
TABS,ioos:station:wmo:42044:1,2009-09-01T03:30:00Z,26.1914,-97.0507,0.0,2.323122898,114.1381459,3.17,'11111222,11111222,11111222' 
TABS,ioos:station:wmo:42044:1,2009-09-01T04:00:00Z,26.1914,-97.0507,0.0,2.219211572,111.1305641,2.9,'11111222,11111222,11111222' 
TABS,ioos:station:wmo:42044:1,2009-09-01T04:30:00Z,26.1914,-97.0507,0.0,2.371919054,114.4043355,3.15,'11111222,11111222,11111222' 
TABS,ioos:station:wmo:42044:1,2009-09-01T05:00:00Z,26.1914,-97.0507,0.0,2.541889061,121.8145852,3.24,'11111222,11111222,11111222' 
TABS,ioos:station:wmo:42044:1,2009-09-01T05:30:00Z,26.1914,-97.0507,0.0,2.254107362,105.7013755,2.84,'11111222,11111222,11111222' 
TABS,ioos:station:wmo:42044:1,2009-09-01T06:00:00Z,26.1914,-97.0507,0.0,2.692526694,117.4219256,3.44,'11111222,11111222,11111222' 
TABS,ioos:station:wmo:42044:1,2009-09-01T06:30:00Z,26.1914,-97.0507,0.0,3.360014881,118.2433645,4.07,'11111222,11111222,11111222' 
TABS,ioos:station:wmo:42044:1,2009-09-01T07:00:00Z,26.1914,-97.0507,0.0,3.10652539,132.7826858,3.82,'11111222,11111222,11111222' 
TABS,ioos:station:wmo:42044:1,2009-09-01T07:30:00Z,26.1914,-97.0507,0.0,2.553840246,136.7456264,3.12,'11111222,11111222,11111222' 
TABS,ioos:station:wmo:42044:1,2009-09-01T08:00:00Z,26.1914,-97.0507,0.0,1.987586476,133.5733172,2.49,'11111222,11111222,11111222' 
TABS,ioos:station:wmo:42044:1,2009-09-01T08:30:00Z,26.1914,-97.0507,0.0,1.524106296,143.8070878,2.05,'11111222,11111222,11111222' 
TABS,ioos:station:wmo:42044:1,2009-09-01T09:00:00Z,26.1914,-97.0507,0.0,0.877097486,151.3898177,1.5,'11111222,11111222,11111222' 
TABS,ioos:station:wmo:42044:1,2009-09-01T09:30:00Z,26.1914,-97.0507,0.0,0.351140997,160.0171507,0.58,'11111222,11111222,11111222' 
TABS,ioos:station:wmo:42044:1,2009-09-01T10:00:00Z,26.1914,-97.0507,0.0,0.23194827,82.56818849,0.6,'11111222,11111222,11111222' 
TABS,ioos:station:wmo:42044:1,2009-09-01T10:30:00Z,26.1914,-97.0507,0.0,0.645600496,73.81041068,1.02,'11111222,11111222,11111222' 
TABS,ioos:station:wmo:42044:1,2009-09-01T11:00:00Z,26.1914,-97.0507,0.0,1.464923206,32.17093144,1.8,'11111222,11111222,11111222' 
TABS,ioos:station:wmo:42044:1,2009-09-01T11:30:00Z,26.1914,-97.0507,0.0,1.962906009,21.20490457,2.44,'11111222,11111222,11111222' 
TABS,ioos:station:wmo:42044:1,2009-09-01T12:00:00Z,26.1914,-97.0507,0.0,2.452039967,36.54246789,2.94,'11111222,11111222,11111222' 
TABS,ioos:station:wmo:42044:1,2009-09-01T12:30:00Z,26.1914,-97.0507,0.0,2.747216773,42.0489121,3.2,'11111222,11111222,11111222' 
TABS,ioos:station:wmo:42044:1,2009-09-01T13:00:00Z,26.1914,-97.0507,0.0,2.835930182,43.99961252,3.32,'11111222,11111222,11111222' 
TABS,ioos:station:wmo:42044:1,2009-09-01T13:30:00Z,26.1914,-97.0507,0.0,3.278795511,32.67194243,3.84,'11111222,11111222,11111222' 
TABS,ioos:station:wmo:42044:1,2009-09-01T14:00:00Z,26.1914,-97.0507,0.0,3.592352989,34.79573445,4.41,'11111222,11111222,11111222' 
TABS,ioos:station:wmo:42044:1,2009-09-01T14:30:00Z,26.1914,-97.0507,0.0,3.480014368,36.70495876,4.25,'11111222,11111222,11111222' 
TABS,ioos:station:wmo:42044:1,2009-09-01T15:00:00Z,26.1914,-97.0507,0.0,4.123117752,38.20375619,4.85,'11111222,11111222,11111222' 
TABS,ioos:station:wmo:42044:1,2009-09-01T15:30:00Z,26.1914,-97.0507,0.0,4.442881948,43.17559875,5.19,'11111222,11111222,11111222' 
TABS,ioos:station:wmo:42044:1,2009-09-01T16:00:00Z,26.1914,-97.0507,0.0,4.095912597,43.3179119,4.77,'11111222,11111222,11111222' 
TABS,ioos:station:wmo:42044:1,2009-09-01T16:30:00Z,26.1914,-97.0507,0.0,4.026834985,54.29658172,4.84,'11111222,11111222,11111222' 
TABS,ioos:station:wmo:42044:1,2009-09-01T17:00:00Z,26.1914,-97.0507,0.0,4.515495543,49.04054431,5.69,'11111222,11111222,11111222' 
TABS,ioos:station:wmo:42044:1,2009-09-01T17:30:00Z,26.1914,-97.0507,0.0,5.18583648,54.65463883,5.99,'11111222,11111222,11111222' 
TABS,ioos:station:wmo:42044:1,2009-09-01T18:00:00Z,26.1914,-97.0507,0.0,4.029950372,60.57219149,5.31,'11111222,11111222,11111222' 
TABS,ioos:station:wmo:42044:1,2009-09-01T18:30:00Z,26.1914,-97.0507,0.0,4.171678319,57.03336651,5.02,'11111222,11111222,11111222' 
TABS,ioos:station:wmo:42044:1,2009-09-01T19:00:00Z,26.1914,-97.0507,0.0,4.211709867,65.74707906,4.98,'11111222,11111222,11111222' 
TABS,ioos:station:wmo:42044:1,2009-09-01T19:30:00Z,26.1914,-97.0507,0.0,4.307319352,70.89162773,5.11,'11111222,11111222,11111222' 
TABS,ioos:station:wmo:42044:1,2009-09-01T20:00:00Z,26.1914,-97.0507,0.0,4.420644749,61.63744176,5.33,'11111222,11111222,11111222' 
TABS,ioos:station:wmo:42044:1,2009-09-01T20:30:00Z,26.1914,-97.0507,0.0,4.003848149,60.3612647,4.75,'11111222,11111222,11111222' 
TABS,ioos:station:wmo:42044:1,2009-09-01T21:00:00Z,26.1914,-97.0507,0.0,4.601086828,54.37512901,5.53,'11111222,11111222,11111222' 
TABS,ioos:station:wmo:42044:1,2009-09-01T21:30:00Z,26.1914,-97.0507,0.0,4.447752241,57.95330625,5.57,'11111222,11111222,11111222' 
TABS,ioos:station:wmo:42044:1,2009-09-01T22:00:00Z,26.1914,-97.0507,0.0,4.778001674,64.98998847,5.88,'11111222,11111222,11111222' 
TABS,ioos:station:wmo:42044:1,2009-09-01T22:30:00Z,26.1914,-97.0507,0.0,4.616015598,53.27871614,5.53,'11111222,11111222,11111222' 
TABS,ioos:station:wmo:42044:1,2009-09-01T23:00:00Z,26.1914,-97.0507,0.0,5.567854165,63.20448827,6.87,'11111222,11111222,11111222' 
TABS,ioos:station:wmo:42044:1,2009-09-01T23:30:00Z,26.1914,-97.0507,0.0,4.981977519,63.28029333,6.19,'11111222,11111222,11111222' 
TABS,ioos:station:wmo:42044:1,2009-09-02T00:00:00Z,26.1914,-97.0507,0.0,4.85461636,67.34345225,5.74,'11111222,11111222,11111222' 
TABS,ioos:station:wmo:42044:1,2009-09-02T00:30:00Z,26.1914,-97.0507,0.0,4.55905692,58.08752093,5.24,'11111222,11111222,11111222' 
TABS,ioos:station:wmo:42044:1,2009-09-02T01:00:00Z,26.1914,-97.0507,0.0,4.013290421,56.07201473,4.82,'11111222,11111222,11111222' 
TABS,ioos:station:wmo:42044:1,2009-09-02T01:30:00Z,26.1914,-97.0507,0.0,4.288519558,67.08172959,5.07,'11111222,11111222,11111222' 
TABS,ioos:station:wmo:42044:1,2009-09-02T02:00:00Z,26.1914,-97.0507,0.0,3.498128071,55.12840419,4.37,'11111222,11111222,11111222' 
TABS,ioos:station:wmo:42044:1,2009-09-02T02:30:00Z,26.1914,-97.0507,0.0,4.427967931,54.83803337,5.26,'11111222,11111222,11111222' 
TABS,ioos:station:wmo:42044:1,2009-09-02T03:00:00Z,26.1914,-97.0507,0.0,4.137825516,60.4608659,5.14,'11111222,11111222,11111222' 
TABS,ioos:station:wmo:42044:1,2009-09-02T03:30:00Z,26.1914,-97.0507,0.0,3.31887029,58.17726481,3.91,'11111222,11111222,11111222' 
TABS,ioos:station:wmo:42044:1,2009-09-02T04:00:00Z,26.1914,-97.0507,0.0,2.737535388,56.77398256,3.39,'11111222,11111222,11111222' 
TABS,ioos:station:wmo:42044:1,2009-09-02T04:30:00Z,26.1914,-97.0507,0.0,2.401686907,69.52734744,2.88,'11111222,11111222,11111222' 
TABS,ioos:station:wmo:42044:1,2009-09-02T05:00:00Z,26.1914,-97.0507,0.0,1.355912977,76.78328592,1.76,'11111222,11111222,11111222' 
TABS,ioos:station:wmo:42044:1,2009-09-02T05:30:00Z,26.1914,-97.0507,0.0,1.790111728,111.9800848,2.17,'11111222,11111222,11111222' 
TABS,ioos:station:wmo:42044:1,2009-09-02T06:00:00Z,26.1914,-97.0507,0.0,1.681338752,105.5244956,2.28,'11111222,11111222,11111222' 
TABS,ioos:station:wmo:42044:1,2009-09-02T06:30:00Z,26.1914,-97.0507,0.0,1.811767093,98.89082339,2.31,'11111222,11111222,11111222' 
TABS,ioos:station:wmo:42044:1,2009-09-02T07:00:00Z,26.1914,-97.0507,0.0,2.751090693,97.09958849,3.38,'11111222,11111222,11111222' 
TABS,ioos:station:wmo:42044:1,2009-09-02T07:30:00Z,26.1914,-97.0507,0.0,2.770505369,98.51071481,3.45,'11111222,11111222,11111222' 
TABS,ioos:station:wmo:42044:1,2009-09-02T08:00:00Z,26.1914,-97.0507,0.0,2.773175076,95.58765182,3.55,'11111222,11111222,11111222' 
TABS,ioos:station:wmo:42044:1,2009-09-02T08:30:00Z,26.1914,-97.0507,0.0,2.83351372,108.9468813,3.5,'11111222,11111222,11111222' 
TABS,ioos:station:wmo:42044:1,2009-09-02T09:00:00Z,26.1914,-97.0507,0.0,2.585652722,115.1778975,3.08,'11111222,11111222,11111222' 
TABS,ioos:station:wmo:42044:1,2009-09-02T09:30:00Z,26.1914,-97.0507,0.0,2.09995238,119.3729685,2.61,'11111222,11111222,11111222' 
TABS,ioos:station:wmo:42044:1,2009-09-02T10:00:00Z,26.1914,-97.0507,0.0,1.768191166,121.3531093,2.32,'11111222,11111222,11111222' 
TABS,ioos:station:wmo:42044:1,2009-09-02T10:30:00Z,26.1914,-97.0507,0.0,2.450795789,116.147201,2.92,'11111222,11111222,11111222' 
TABS,ioos:station:wmo:42044:1,2009-09-02T11:00:00Z,26.1914,-97.0507,0.0,1.820109887,90.63001805,2.39,'11111222,11111222,11111222' 
TABS,ioos:station:wmo:42044:1,2009-09-02T11:30:00Z,26.1914,-97.0507,0.0,8.819824261,65.41052062,10.43,'11111222,11111222,11111222' 
TABS,ioos:station:wmo:42044:1,2009-09-02T12:00:00Z,26.1914,-97.0507,0.0,5.70629477,80.61981373,7.68,'11111222,11111222,11111222' 
TABS,ioos:station:wmo:42044:1,2009-09-02T12:30:00Z,26.1914,-97.0507,0.0,4.775447623,78.52496324,6.06,'11111222,11111222,11111222' 
TABS,ioos:station:wmo:42044:1,2009-09-02T13:00:00Z,26.1914,-97.0507,0.0,5.798292852,93.06513723,7.11,'11111222,11111222,11111222' 
TABS,ioos:station:wmo:42044:1,2009-09-02T13:30:00Z,26.1914,-97.0507,0.0,5.928110998,103.2630467,7.56,'11111222,11111222,11111222' 
TABS,ioos:station:wmo:42044:1,2009-09-02T14:00:00Z,26.1914,-97.0507,0.0,3.451289614,103.9158398,4.61,'11111222,11111222,11111222' 
TABS,ioos:station:wmo:42044:1,2009-09-02T14:30:00Z,26.1914,-97.0507,0.0,2.821949681,110.1049064,3.54,'11111222,11111222,11111222' 
TABS,ioos:station:wmo:42044:1,2009-09-02T15:00:00Z,26.1914,-97.0507,0.0,2.909914088,85.26865152,3.51,'11111222,11111222,11111222' 
TABS,ioos:station:wmo:42044:1,2009-09-02T15:30:00Z,26.1914,-97.0507,0.0,2.270198229,89.24241199,3.14,'11111222,11111222,11111222' 
TABS,ioos:station:wmo:42044:1,2009-09-02T16:00:00Z,26.1914,-97.0507,0.0,0.9625487,122.6998056,1.33,'11111222,11111222,11111222' 
TABS,ioos:station:wmo:42044:1,2009-09-02T16:30:00Z,26.1914,-97.0507,0.0,2.508565327,73.08160579,3.97,'11111222,11111222,11111222' 
TABS,ioos:station:wmo:42044:1,2009-09-02T17:00:00Z,26.1914,-97.0507,0.0,2.53931093,71.63602532,3.76,'11111222,11111222,11111222' 
TABS,ioos:station:wmo:42044:1,2009-09-02T17:30:00Z,26.1914,-97.0507,0.0,2.376741467,61.06211601,3.11,'11111222,11111222,11111222' 
TABS,ioos:station:wmo:42044:1,2009-09-02T18:00:00Z,26.1914,-97.0507,0.0,3.061045573,75.23699663,3.75,'11111222,11111222,11111222' 
TABS,ioos:station:wmo:42044:1,2009-09-02T18:30:00Z,26.1914,-97.0507,0.0,2.751381471,43.67431457,3.69,'11111222,11111222,11111222' 
TABS,ioos:station:wmo:42044:1,2009-09-02T19:00:00Z,26.1914,-97.0507,0.0,2.579786813,55.26236721,3.44,'11111222,11111222,11111222' 
TABS,ioos:station:wmo:42044:1,2009-09-02T19:30:00Z,26.1914,-97.0507,0.0,3.201999375,77.00499268,4.04,'11111222,11111222,11111222' 
TABS,ioos:station:wmo:42044:1,2009-09-02T20:00:00Z,26.1914,-97.0507,0.0,2.399103999,56.04464127,3.13,'11111222,11111222,11111222' 
TABS,ioos:station:wmo:42044:1,2009-09-02T20:30:00Z,26.1914,-97.0507,0.0,2.773625786,47.04508802,3.35,'11111222,11111222,11111222' 
TABS,ioos:station:wmo:42044:1,2009-09-02T21:00:00Z,26.1914,-97.0507,0.0,2.795800422,56.82114501,3.61,'11111222,11111222,11111222' 
TABS,ioos:station:wmo:42044:1,2009-09-02T21:30:00Z,26.1914,-97.0507,0.0,3.028811648,73.89831434,3.78,'11111222,11111222,11111222' 
TABS,ioos:station:wmo:42044:1,2009-09-02T22:00:00Z,26.1914,-97.0507,0.0,3.667601396,73.68942166,4.87,'11111222,11111222,11111222' 
TABS,ioos:station:wmo:42044:1,2009-09-02T22:30:00Z,26.1914,-97.0507,0.0,4.106689664,76.9108769,5.11,'11111222,11111222,11111222' 
TABS,ioos:station:wmo:42044:1,2009-09-02T23:00:00Z,26.1914,-97.0507,0.0,4.062769991,92.11629275,5.18,'11111222,11111222,11111222' 
TABS,ioos:station:wmo:42044:1,2009-09-02T23:30:00Z,26.1914,-97.0507,0.0,4.599913043,99.2579483,5.35,'11111222,11111222,11111222' 
TABS,ioos:station:wmo:42044:1,2009-09-03T00:00:00Z,26.1914,-97.0507,0.0,4.710721813,105.0101508,5.57,'11111222,11111222,11111222' 
TABS,ioos:station:wmo:42044:1,2009-09-03T00:30:00Z,26.1914,-97.0507,0.0,4.507815435,102.5567718,5.67,'11111222,11111222,11111222' 
TABS,ioos:station:wmo:42044:1,2009-09-03T01:00:00Z,26.1914,-97.0507,0.0,4.783565616,101.9445702,5.86,'11111222,11111222,11111222' 
TABS,ioos:station:wmo:42044:1,2009-09-03T01:30:00Z,26.1914,-97.0507,0.0,5.001889643,105.0646196,5.91,'11111222,11111222,11111222' 
TABS,ioos:station:wmo:42044:1,2009-09-03T02:00:00Z,26.1914,-97.0507,0.0,5.107837116,103.8189853,6.18,'11111222,11111222,11111222' 
TABS,ioos:station:wmo:42044:1,2009-09-03T02:30:00Z,26.1914,-97.0507,0.0,5.106593777,102.7847644,6.18,'11111222,11111222,11111222' 
TABS,ioos:station:wmo:42044:1,2009-09-03T03:00:00Z,26.1914,-97.0507,0.0,5.189036519,102.804657,6.59,'11111222,11111222,11111222' 
TABS,ioos:station:wmo:42044:1,2009-09-03T03:30:00Z,26.1914,-97.0507,0.0,5.011546667,105.0349058,6.15,'11111222,11111222,11111222' 
TABS,ioos:station:wmo:42044:1,2009-09-03T04:00:00Z,26.1914,-97.0507,0.0,4.82374336,107.1205754,5.79,'11111222,11111222,11111222' 
TABS,ioos:station:wmo:42044:1,2009-09-03T04:30:00Z,26.1914,-97.0507,0.0,4.535460285,117.5823856,5.44,'11111222,11111222,11111222' 
TABS,ioos:station:wmo:42044:1,2009-09-03T05:00:00Z,26.1914,-97.0507,0.0,4.25174082,121.6343341,5.25,'11111222,11111222,11111222' 
TABS,ioos:station:wmo:42044:1,2009-09-03T05:30:00Z,26.1914,-97.0507,0.0,4.024040258,126.6139414,4.85,'11111222,11111222,11111222' 
TABS,ioos:station:wmo:42044:1,2009-09-03T06:00:00Z,26.1914,-97.0507,0.0,3.906929741,139.2558515,4.96,'11111222,11111222,11111222' 
TABS,ioos:station:wmo:42044:1,2009-09-03T06:30:00Z,26.1914,-97.0507,0.0,3.806638937,150.4047516,4.79,'11111222,11111222,11111222' 
TABS,ioos:station:wmo:42044:1,2009-09-03T07:00:00Z,26.1914,-97.0507,0.0,3.524088535,153.7260597,4.36,'11111222,11111222,11111222' 
TABS,ioos:station:wmo:42044:1,2009-09-03T07:30:00Z,26.1914,-97.0507,0.0,3.342005386,163.8429084,4.15,'11111222,11111222,11111222' 
TABS,ioos:station:wmo:42044:1,2009-09-03T08:00:00Z,26.1914,-97.0507,0.0,3.194197865,166.0510091,4.13,'11111222,11111222,11111222' 
TABS,ioos:station:wmo:42044:1,2009-09-03T08:30:00Z,26.1914,-97.0507,0.0,2.581046299,160.3016351,3.23,'11111222,11111222,11111222' 
TABS,ioos:station:wmo:42044:1,2009-09-03T09:00:00Z,26.1914,-97.0507,0.0,3.166528067,138.4569268,3.75,'11111222,11111222,11111222' 
TABS,ioos:station:wmo:42044:1,2009-09-03T09:30:00Z,26.1914,-97.0507,0.0,2.901465147,139.6131991,3.6,'11111222,11111222,11111222' 
TABS,ioos:station:wmo:42044:1,2009-09-03T10:00:00Z,26.1914,-97.0507,0.0,2.9,136.3974934,3.88,'11111222,11111222,11111222' 
TABS,ioos:station:wmo:42044:1,2009-09-03T10:30:00Z,26.1914,-97.0507,0.0,2.952693685,125.6282449,3.73,'11111222,11111222,11111222' 
TABS,ioos:station:wmo:42044:1,2009-09-03T11:00:00Z,26.1914,-97.0507,0.0,3.528540775,116.7832631,4.39,'11111222,11111222,11111222' 
TABS,ioos:station:wmo:42044:1,2009-09-03T11:30:00Z,26.1914,-97.0507,0.0,3.087069808,118.2256885,3.85,'11111222,11111222,11111222' 
TABS,ioos:station:wmo:42044:1,2009-09-03T12:00:00Z,26.1914,-97.0507,0.0,3.024764454,144.4185761,3.91,'11111222,11111222,11111222' 
TABS,ioos:station:wmo:42044:1,2009-09-03T12:30:00Z,26.1914,-97.0507,0.0,3.015692292,158.198852,4.13,'11111222,11111222,11111222' 
TABS,ioos:station:wmo:42044:1,2009-09-03T13:00:00Z,26.1914,-97.0507,0.0,2.739288229,141.3731583,3.62,'11111222,11111222,11111222' 
TABS,ioos:station:wmo:42044:1,2009-09-03T13:30:00Z,26.1914,-97.0507,0.0,2.200658992,152.3872472,2.84,'11111222,11111222,11111222' 
TABS,ioos:station:wmo:42044:1,2009-09-03T14:00:00Z,26.1914,-97.0507,0.0,2.289650628,158.4776607,3.33,'11111222,11111222,11111222' 
TABS,ioos:station:wmo:42044:1,2009-09-03T14:30:00Z,26.1914,-97.0507,0.0,2.587856256,159.884741,3.31,'11111222,11111222,11111222' 
TABS,ioos:station:wmo:42044:1,2009-09-03T15:00:00Z,26.1914,-97.0507,0.0,2.63865496,152.9496767,3.22,'11111222,11111222,11111222' 
TABS,ioos:station:wmo:42044:1,2009-09-03T15:30:00Z,26.1914,-97.0507,0.0,2.31510259,171.5551267,2.94,'11111222,11111222,11111222' 
TABS,ioos:station:wmo:42044:1,2009-09-03T16:00:00Z,26.1914,-97.0507,0.0,1.995820633,170.7738878,2.53,'11111222,11111222,11111222' 
TABS,ioos:station:wmo:42044:1,2009-09-03T16:30:00Z,26.1914,-97.0507,0.0,2.103734774,186.5509216,2.69,'11111222,11111222,11111222' 
TABS,ioos:station:wmo:42044:1,2009-09-03T17:00:00Z,26.1914,-97.0507,0.0,2.096902477,175.3500365,2.77,'11111222,11111222,11111222' 
TABS,ioos:station:wmo:42044:1,2009-09-03T17:30:00Z,26.1914,-97.0507,0.0,1.565183695,192.1716402,2.16,'11111222,11111222,11111222' 
TABS,ioos:station:wmo:42044:1,2009-09-03T18:00:00Z,26.1914,-97.0507,0.0,1.620863967,164.2490736,2.29,'11111222,11111222,11111222' 
TABS,ioos:station:wmo:42044:1,2009-09-03T18:30:00Z,26.1914,-97.0507,0.0,1.626591528,135.9966613,2.47,'11111222,11111222,11111222' 
TABS,ioos:station:wmo:42044:1,2009-09-03T19:00:00Z,26.1914,-97.0507,0.0,1.851728922,115.5967353,2.59,'11111222,11111222,11111222' 
TABS,ioos:station:wmo:42044:1,2009-09-03T19:30:00Z,26.1914,-97.0507,0.0,1.889047379,133.0697328,2.88,'11111222,11111222,11111222' 
TABS,ioos:station:wmo:42044:1,2009-09-03T20:00:00Z,26.1914,-97.0507,0.0,2.294776678,120.3646209,3.92,'11111222,11111222,11111222' 
TABS,ioos:station:wmo:42044:1,2009-09-03T20:30:00Z,26.1914,-97.0507,0.0,2.738558015,114.600154,3.54,'11111222,11111222,11111222' 
TABS,ioos:station:wmo:42044:1,2009-09-03T21:00:00Z,26.1914,-97.0507,0.0,3.441177124,111.1215609,4.36,'11111222,11111222,11111222' 
TABS,ioos:station:wmo:42044:1,2009-09-03T21:30:00Z,26.1914,-97.0507,0.0,4.034476422,105.3800595,4.8,'11111222,11111222,11111222' 
TABS,ioos:station:wmo:42044:1,2009-09-03T22:00:00Z,26.1914,-97.0507,0.0,4.59870634,104.6107776,5.58,'11111222,11111222,11111222' 
TABS,ioos:station:wmo:42044:1,2009-09-03T22:30:00Z,26.1914,-97.0507,0.0,4.297592349,108.7304451,5.44,'11111222,11111222,11111222' 
TABS,ioos:station:wmo:42044:1,2009-09-03T23:00:00Z,26.1914,-97.0507,0.0,4.381152816,109.8829229,5.19,'11111222,11111222,11111222' 
TABS,ioos:station:wmo:42044:1,2009-09-03T23:30:00Z,26.1914,-97.0507,0.0,4.890010225,118.1900111,6.01,'11111222,11111222,11111222' 
TABS,ioos:station:wmo:42044:1,2009-09-04T00:00:00Z,26.1914,-97.0507,0.0,4.803373814,115.9252618,6.25,'11111222,11111222,11111222' 
TABS,ioos:station:wmo:42044:1,2009-09-04T00:30:00Z,26.1914,-97.0507,0.0,4.82374336,109.7500778,6.11,'11111222,11111222,11111222' 
TABS,ioos:station:wmo:42044:1,2009-09-04T01:00:00Z,26.1914,-97.0507,0.0,5.436046357,105.0336439,6.97,'11111222,11111222,11111222' 
TABS,ioos:station:wmo:42044:1,2009-09-04T01:30:00Z,26.1914,-97.0507,0.0,5.280094696,103.6944935,6.3,'11111222,11111222,11111222' 
TABS,ioos:station:wmo:42044:1,2009-09-04T02:00:00Z,26.1914,-97.0507,0.0,5.095762946,102.2365038,6.37,'11111222,11111222,11111222' 
TABS,ioos:station:wmo:42044:1,2009-09-04T02:30:00Z,26.1914,-97.0507,0.0,5.294393261,107.4770659,6.39,'11111222,11111222,11111222' 
TABS,ioos:station:wmo:42044:1,2009-09-04T03:00:00Z,26.1914,-97.0507,0.0,5.313002917,107.7532678,6.29,'11111222,11111222,11111222' 
TABS,ioos:station:wmo:42044:1,2009-09-04T03:30:00Z,26.1914,-97.0507,0.0,4.69421985,113.3431977,5.79,'11111222,11111222,11111222' 
TABS,ioos:station:wmo:42044:1,2009-09-04T04:00:00Z,26.1914,-97.0507,0.0,4.492271141,111.1386102,5.72,'11111222,11111222,11111222' 
TABS,ioos:station:wmo:42044:1,2009-09-04T04:30:00Z,26.1914,-97.0507,0.0,4.013838562,132.2740111,4.87,'11111222,11111222,11111222' 
TABS,ioos:station:wmo:42044:1,2009-09-04T05:00:00Z,26.1914,-97.0507,0.0,3.997661817,121.1853227,4.88,'11111222,11111222,11111222' 
TABS,ioos:station:wmo:42044:1,2009-09-04T05:30:00Z,26.1914,-97.0507,0.0,4.244078227,109.1184018,5.17,'11111222,11111222,11111222' 
TABS,ioos:station:wmo:42044:1,2009-09-04T06:00:00Z,26.1914,-97.0507,0.0,4.147010972,124.6867552,5.13,'11111222,11111222,11111222' 
TABS,ioos:station:wmo:42044:1,2009-09-04T06:30:00Z,26.1914,-97.0507,0.0,3.974342713,134.1847744,4.89,'11111222,11111222,11111222' 
TABS,ioos:station:wmo:42044:1,2009-09-04T07:00:00Z,26.1914,-97.0507,0.0,4.004310178,141.1840696,4.75,'11111222,11111222,11111222' 
TABS,ioos:station:wmo:42044:1,2009-09-04T07:30:00Z,26.1914,-97.0507,0.0,4.153697148,148.9892137,5.12,'11111222,11111222,11111222' 
TABS,ioos:station:wmo:42044:1,2009-09-04T08:00:00Z,26.1914,-97.0507,0.0,4.216266121,156.9622657,5.29,'11111222,11111222,11111222' 
TABS,ioos:station:wmo:42044:1,2009-09-04T08:30:00Z,26.1914,-97.0507,0.0,4.58363393,160.1025868,5.39,'11111222,11111222,11111222' 
TABS,ioos:station:wmo:42044:1,2009-09-04T09:00:00Z,26.1914,-97.0507,0.0,4.633119899,177.8974273,5.71,'11111222,11111222,11111222' 
TABS,ioos:station:wmo:42044:1,2009-09-04T09:30:00Z,26.1914,-97.0507,0.0,4.342591392,178.0207342,5.55,'11111222,11111222,11111222' 
TABS,ioos:station:wmo:42044:1,2009-09-04T10:00:00Z,26.1914,-97.0507,0.0,4.071412531,164.325477,5.05,'11111222,11111222,11111222' 
TABS,ioos:station:wmo:42044:1,2009-09-04T10:30:00Z,26.1914,-97.0507,0.0,4.195473752,175.0778038,4.99,'11111222,11111222,11111222' 
TABS,ioos:station:wmo:42044:1,2009-09-04T11:00:00Z,26.1914,-97.0507,0.0,3.278734512,173.8723101,4.33,'11111222,11111222,11111222' 
TABS,ioos:station:wmo:42044:1,2009-09-04T11:30:00Z,26.1914,-97.0507,0.0,2.159837957,161.6491929,2.79,'11111222,11111222,11111222' 
TABS,ioos:station:wmo:42044:1,2009-09-04T12:00:00Z,26.1914,-97.0507,0.0,1.671705716,138.3952313,2.04,'11111222,11111222,11111222' 
TABS,ioos:station:wmo:42044:1,2009-09-04T12:30:00Z,26.1914,-97.0507,0.0,1.484991582,135.545972,2.2,'11111222,11111222,11111222' 
TABS,ioos:station:wmo:42044:1,2009-09-04T13:00:00Z,26.1914,-97.0507,0.0,1.767823521,134.5419603,2.21,'11111222,11111222,11111222' 
TABS,ioos:station:wmo:42044:1,2009-09-04T13:30:00Z,26.1914,-97.0507,0.0,1.504260616,125.8036813,2.01,'11111222,11111222,11111222' 
TABS,ioos:station:wmo:42044:1,2009-09-04T14:00:00Z,26.1914,-97.0507,0.0,1.780842497,112.1005027,2.32,'11111222,11111222,11111222' 
TABS,ioos:station:wmo:42044:1,2009-09-04T14:30:00Z,26.1914,-97.0507,0.0,1.122185368,93.57674693,1.74,'11111222,11111222,11111222' 
TABS,ioos:station:wmo:42044:1,2009-09-04T15:00:00Z,26.1914,-97.0507,0.0,1.080740487,92.12151235,1.45,'11111222,11111222,11111222' 
TABS,ioos:station:wmo:42044:1,2009-09-04T15:30:00Z,26.1914,-97.0507,0.0,1.126410227,83.88408982,1.61,'11111222,11111222,11111222' 
TABS,ioos:station:wmo:42044:1,2009-09-04T16:00:00Z,26.1914,-97.0507,0.0,1.710204666,79.21530643,2.33,'11111222,11111222,11111222' 
TABS,ioos:station:wmo:42044:1,2009-09-04T16:30:00Z,26.1914,-97.0507,0.0,2.211176158,80.36688353,3.12,'11111222,11111222,11111222' 
TABS,ioos:station:wmo:42044:1,2009-09-04T17:00:00Z,26.1914,-97.0507,0.0,2.978355251,82.08714197,4.0,'11111222,11111222,11111222' 
TABS,ioos:station:wmo:42044:1,2009-09-04T17:30:00Z,26.1914,-97.0507,0.0,3.902332636,85.4432313,4.76,'11111222,11111222,11111222' 
TABS,ioos:station:wmo:42044:1,2009-09-04T18:00:00Z,26.1914,-97.0507,0.0,4.591862367,83.24602084,5.26,'11111222,11111222,11111222' 
TABS,ioos:station:wmo:42044:1,2009-09-04T18:30:00Z,26.1914,-97.0507,0.0,4.718739238,83.67281093,5.65,'11111222,11111222,11111222' 